Location: Casilda
(33.0440°S, 61.1680°W)
Time: 19:57:13
(UTC-03:00)

ISS - Pass Details

Date: 26 November 2023
Orbit: 415 x 417 km, 51.6° (Epoch: 04 December)

Event Time Altitude Azimuth Distance (km) Brightness Sun altitude
Exits shadow 03:20:47 33° 145° (SE) 743 -2.0 -25.4°
Drops below altitude 10° 03:22:47 10° 138° (SE) 1,515 0.1 -25.1°
Sets 03:24:55 0° 136° (SE) 2,386 1.5 -24.9°
